Regional Weather Roundup
Issued by NWS Green Bay, WI

Home | Current Version | Previous Version | Graphics & Text | Print | Product List | Glossary Off
Versions: 1 2 3 4 5 6 7 8 9 10 11 12 13 14 15 16 17 18 19 20 21 22 23 24 25 26 27 28 29 30 31 32 33 34 35 36 37 38 39 40 41 42 43 44 45 46 47 48 49 50

000
ASUS43 KGRB 301311
RWRGRB

NORTH-CENTRAL AND NORTHEAST WISCONSIN REGIONAL WEATHER ROUNDUP
NATIONAL WEATHER SERVICE GREEN BAY WI
800 AM CDT SAT JUL 30 2016

WIZ005-009-010>012-018-019-301400-
NORTH CENTRAL WISCONSIN

CITY           SKY/WX    TMP DP  RH WIND       PRES   REMARKS
IRONWOOD       MOSUNNY   64  55  72 CALM      30.07S
MANITOWISH WTR CLOUDY    61  61 100 CALM      30.11S
ARBOR VITAE    SUNNY     64  57  77 SE6       30.11S
EAGLE RIVER    SUNNY     64  54  69 E5        30.11S
LAND O LAKES   MOSUNNY   63  55  74 CALM      30.13R
RHINELANDER    SUNNY     62  55  77 E5        30.12R
PHILLIPS       PTSUNNY   59  57  92 CALM      30.10R
ANTIGO         SUNNY     61  59  92 CALM      30.10S
TOMAHAWK       SUNNY     60  58  96 CALM      30.11S
MERRILL        SUNNY     60  57  88 CALM      30.10S
$$

WIZ013-073-301400-
NORTHEAST WISCONSIN

CITY           SKY/WX    TMP DP  RH WIND       PRES   REMARKS
IRON MOUNTAIN  SUNNY     62  54  74 N5        30.10R
MARINETTE        N/A    N/A N/A N/A NE6       30.09
OCONTO         SUNNY     67  65  94 NE7       30.07S
$$

WIZ017-030-035>037-045-301400-
CENTRAL WISCONSIN

CITY           SKY/WX    TMP DP  RH WIND       PRES   REMARKS
MEDFORD        SUNNY     61  60  96 E7        30.09R
WAUSAU         PTSUNNY   64  57  78 NE3       30.07R
MOSINEE        PTSUNNY   61  57  88 NE5       30.09R
MARSHFIELD     PTSUNNY   63  56  78 NE7       30.07R
WISC RAPIDS    PTSUNNY   66  57  72 E7        30.07R
STEVENS POINT  CLOUDY    61  57  86 NE5       30.07S
WAUPACA        CLOUDY    66  62  87 N3        30.06S
SHAWANO        MOSUNNY   65  59  80 NE5       30.08S
CLINTONVILLE   CLOUDY    63  57  82 NE5       30.07R
WAUTOMA        CLOUDY    64  60  87 NE6       30.06R
$$

WIZ038-039-048-051-301400-
FOX VALLEY

CITY           SKY/WX    TMP DP  RH WIND       PRES   REMARKS
NWS GREEN BAY  PTSUNNY   65  64  97 N7        30.06R
APPLETON       PTSUNNY   64  61  88 VRB6      30.04R
OSHKOSH        CLOUDY    69  61  75 NE8       30.04R
FOND DU LAC    CLOUDY    69  61  75 NE7       30.04R
$$

WIZ022-050-052-301400-
EAST CENTRAL WISCONSIN

CITY           SKY/WX    TMP DP  RH WIND       PRES   REMARKS
EPHRAIM        FAIR      68  60  75 E7        30.08S
WASHINGTON ISL NOT AVBL
STURGEON BAY   SUNNY     70  58  65 E7        30.09R
MANITOWOC      SUNNY     68  61  78 MISG      30.06R
SHEBOYGAN      SUNNY     68  62  81 MISG      30.04R
$$

LMZ563-521-522-541>543-301400-
LAKESHORE

STATION/POSITION TIME  TEMP    WIND        PRES    VSBY  WAVE
                       AIR SEA DIR/SP/G                  HT/PER
                 (UTC) (F)     (DEG/KT/KT) (MB)    (MI)  (FT/S)
SHEBOYGAN LKSHOR 1300   68      50/ 10/ 10 1017.2R
KEWAUNEE LKSHORE 1200   68      70/  5/  8 1017.1R
ALGOMA MARINA    1213           80/ 14/ 16   N/A
NORTHPORT PIER   1200   70      80/  8/ 11 1018.3R
N MID LAKE BUOY  1250   69 69   80/ 10/ 12 1018.2R         1/ 3
S GREEN BAY BUOY 1230   68 70   60/ 10/ 12 1017.6R
CHAMBERS ISLAND  1200   70      50/  6/  9 1018.3R
MENOMINEE LKSHOR 1200   70      50/ 10/ 11 1017.3R
$$



USA.gov is the U.S. government's official web portal to all federal, state and local government web resources and services.